Location: Rio Tanui
(39.9167°N, 8.5167°E)
Time: 01:48:43
(UTC+00:00)

IRIDIUM 106 - Pass Details

Date: 08 February 2023
Orbit: 776 x 779 km, 86.4° (Epoch: 01 April)

Event Time Altitude Azimuth Distance (km) Brightness Sun altitude
Rises 17:57:43 0° 356° (N) 3,273 7.5 -12.8°
Reaches altitude 10° 18:00:04 10° 355° (N) 2,340 6.8 -13.3°
Maximum altitude 18:05:19 81° 269° (W) 794 4.4 -14.3°
Drops below altitude 10° 18:10:31 10° 183° (S) 2,322 6.9 -15.3°
Sets 18:12:51 0° 182° (S) 3,245 7.7 -15.7°
